FW9285 Weather Reports


Display with metric or nautical units.
time (UTC)temp
F
wind
direction
speed
MPH
gust
MPH
rain 1hr
in
rain 24hr
in
rain mn
in
humidity
%
barometer
mb
20260503180238 89 164 3.0 9.0 0.00 0.00 0.00 26 1011.0
20260503175239 89 164 5.0 8.0 0.00 0.00 0.00 26 1011.2
20260503173240 87 152 5.0 12.0 0.00 0.00 0.00 28 1011.3
20260503172239 87 161 3.0 15.0 0.00 0.00 0.00 29 1011.0
20260503171238 86 144 9.0 14.0 0.00 0.00 0.00 29 1011.2
20260503170244 86 160 4.0 14.0 0.00 0.00 0.00 29 1011.2
20260503150238 79 139 5.0 13.0 0.00 0.00 0.00 34 1011.8
20260503140239 77 151 9.0 19.0 0.00 0.00 0.00 35 1011.3
20260503131237 76 152 5.0 14.0 0.00 0.00 0.00 36 1011.1
20260503130239 76 141 5.0 18.0 0.00 0.00 0.00 36 1010.6
20260503110238 77 201 2.0 11.0 0.00 0.00 0.00 35 1010.7
20260503100232 78 156 4.0 12.0 0.00 0.00 0.00 34 1010.7
20260503090230 79 148 6.0 17.0 0.00 0.00 0.00 32 1010.3
20260503081231 80 142 5.0 12.0 0.00 0.00 0.00 29 1010.7
20260503072229 81 202 2.0 12.0 0.00 0.00 0.00 26 1010.9
20260503071230 81 154 5.0 10.0 0.00 0.00 0.00 26 1010.9
20260503070229 81 162 2.0 14.0 0.00 0.00 0.00 26 1010.7
20260503060229 82 113 4.0 9.0 0.00 0.00 0.00 25 1010.4
20260503054234 82 201 4.0 8.0 0.00 0.00 0.00 25 1010.4
20260503053230 82 180 2.0 11.0 0.00 0.00 0.00 25 1010.3
20260503052229 82 221 3.0 10.0 0.00 0.00 0.00 25 1010.5
20260503051228 83 176 3.0 7.0 0.00 0.00 0.00 24 1010.5
20260503050229 83 198 3.0 8.0 0.00 0.00 0.00 24 1010.5
20260503045228 83 177 3.0 5.0 0.00 0.00 0.00 24 1010.2
20260503044227 83 143 4.0 5.0 0.00 0.00 0.00 24 1010.1
20260503042226 83 147 3.0 6.0 0.00 0.00 0.00 23 1009.8
20260503041226 83 193 2.0 4.0 0.00 0.00 0.00 23 1009.7
20260503040225 83 228 0.0 4.0 0.00 0.00 0.00 23 1009.7
20260503035225 83 241 1.0 3.0 0.00 0.00 0.00 22 1009.4
20260503034226 83 202 1.0 2.0 0.00 0.00 0.00 22 1009.4
20260503033225 83 239 0.0 2.0 0.00 0.00 0.00 21 1009.3
20260503032224 84 315 0.0 2.0 0.00 0.00 0.00 21 1009.2
20260503031225 85 287 0.0 3.0 0.00 0.00 0.00 20 1009.2
20260503025224 85 226 0.0 3.0 0.00 0.00 0.00 20 1009.3
20260503024226 85 182 1.0 3.0 0.00 0.00 0.00 21 1009.0
20260503015222 87 312 2.0 4.0 0.00 0.00 0.00 20 1008.9
20260503014228 88 292 2.0 3.0 0.00 0.00 0.00 21 1008.9
20260503012224 89 318 2.0 4.0 0.00 0.00 0.00 19 1009.2
20260503011221 89 342 1.0 4.0 0.00 0.00 0.00 19 1008.9
20260503010222 90 35 0.0 5.0 0.00 0.00 0.00 19 1008.8
20260503005222 90 267 2.0 8.0 0.00 0.00 0.00 18 1008.8
20260503004221 90 327 3.0 5.0 0.00 0.00 0.00 18 1008.9
20260503003222 90 12 3.0 7.0 0.00 0.00 0.00 19 1009.0
20260503002224 90 59 6.0 6.0 0.00 0.00 0.00 18 1008.9
20260503001219 91 357 2.0 5.0 0.00 0.00 0.00 17 1008.9
20260503000219 92 79 2.0 7.0 0.00 0.00 0.00 18 1009.0
20260502235222 92 180 1.0 5.0 0.00 0.00 0.00 18 1009.3
20260502234220 93 55 0.0 6.0 0.00 0.00 0.00 18 1008.9
20260502233220 92 244 2.0 6.0 0.00 0.00 0.00 18 1009.2
20260502232220 93 160 1.0 9.0 0.00 0.00 0.00 17 1009.2
20260502231220 92 27 2.0 7.0 0.00 0.00 0.00 17 1009.2
20260502230223 92 44 3.0 10.0 0.00 0.00 0.00 18 1009.4
20260502225219 92 32 0.0 6.0 0.00 0.00 0.00 19 1009.6
20260502224220 93 325 2.0 6.0 0.00 0.00 0.00 18 1009.7
20260502223222 94 314 3.0 6.0 0.00 0.00 0.00 17 1009.5
20260502222220 92 158 4.0 11.0 0.00 0.00 0.00 18 1009.8
20260502221219 94 120 5.0 9.0 0.00 0.00 0.00 18 1010.0
20260502220219 95 321 2.0 9.0 0.00 0.00 0.00 19 1010.4
20260502215218 93 92 6.0 11.0 0.00 0.00 0.00 18 1010.2
20260502214221 93 311 0.0 8.0 0.00 0.00 0.00 18 1010.7
20260502213208 93 112 4.0 8.0 0.00 0.00 0.00 19 1010.6
20260502212208 94 93 5.0 7.0 0.00 0.00 0.00 19 1010.9
20260502211209 92 181 4.0 12.0 0.00 0.00 0.00 19 1011.0
20260502210204 93 119 2.0 17.0 0.00 0.00 0.00 20 1011.0
20260502205204 91 151 0.0 13.0 0.00 0.00 0.00 19 1011.1
20260502204202 92 141 6.0 11.0 0.00 0.00 0.00 19 1011.5
20260502201202 91 138 4.0 8.0 0.00 0.00 0.00 20 1012.2
20260502194204 89 277 2.0 12.0 0.00 0.00 0.00 22 1012.3
20260502193203 90 124 3.0 14.0 0.00 0.00 0.00 22 1012.2
20260502192205 89 170 2.0 12.0 0.00 0.00 0.00 23 1012.5
20260502191202 91 104 6.0 13.0 0.00 0.00 0.00 23 1012.7
20260502190203 89 163 4.0 16.0 0.00 0.00 0.00 24 1012.8
20260502185202 89 142 5.0 16.0 0.00 0.00 0.00 24 1013.0
20260502184202 89 341 2.0 14.0 0.00 0.00 0.00 25 1013.2
20260502182202 88 216 1.0 14.0 0.00 0.00 0.00 27 1013.8
20260502181207 87 164 6.0 14.0 0.00 0.00 0.00 27 1013.6